Location: Buffign�court
(47.8126°N, 6.0176°E)
Time: 18:34:11
(UTC+00:00)

Cosmos 1461 - Pass Details

Date: 16 June 2021
Orbit: 513 x 649 km, 65.0° (Epoch: 01 August)

Event Time Altitude Azimuth Distance (km) Brightness Sun altitude
Rises 21:22:12 0° 320° (NW) 2,822 8.4 -12.7°
Reaches altitude 10° 21:24:31 10° 317° (NW) 1,894 6.9 -12.9°
Maximum altitude 21:28:42 61° 237° (WSW) 637 3.1 -13.2°
Enters shadow 21:31:12 22° 163° (SSE) 1,231 4.0 -13.4°
